Simultaneous Nadir Overpasses (SNOs) Predictions

Prediction of SNOs between GOES-14 and AQUA Satellite Orbit:

Table of predicted SNOs for the next 14.0 days since TLE Epoch: 3/23/2024
Index Date Time (GOES-14) GOES-14 Lat,Lon AQUA Lat,Lon Distance(km) Time Diff (sec)
1 03/24/2024 21:11:53 -0.15,-108.48 0.25,-106.51 223.73 80
2 03/25/2024 09:32:12 0.15,-108.48 0.76,-111.43 335.71 80
3 03/27/2024 09:13:39 0.15,-108.48 -0.02,-107.54 106.31 80
4 03/27/2024 21:34:06 -0.15,-108.49 -1.03,-112.49 455.92 80
5 03/29/2024 21:18:13 -0.15,-108.50 -0.16,-108.62 13.68 80
6 03/31/2024 21:04:58 -0.16,-108.49 0.66,-104.73 428.88 80
7 04/01/2024 09:25:14 0.16,-108.49 0.43,-109.63 130.05 80
8 04/03/2024 09:06:39 0.17,-108.49 -0.41,-105.74 312.45 80
9 04/03/2024 21:27:04 -0.17,-108.48 -0.63,-110.68 250.06 80
10 04/05/2024 21:13:46 -0.17,-108.48 0.18,-106.78 193.43 80
